Showing default

ZHUHAI-1 03D, 44538

Orbit data source: Space-Track

ZHUHAI-1 03D, 44538 is a payload satellite owned by Zhuhai Orbita (CN) in SSO that was launched on Thu, 19 Sep 2019 UTC via a CHANG ZHENG 11 launch vehicle from the Jiuquan Satellite Launch Center, China (JSC). Payload-class satellites include a variety of spacecraft equipped with specific instruments for various scientific and technological missions. These include communications satellites like Starlink; space stations such as the ISS; scientific satellites like the Hubble; Earth observation satellites from companies like Planet Labs, Umbra, and HawkEye 360; GPS; miniature CubeSats for education and research; and military/defense satellites.

Loading next visibility...
Identifier
44538, 2019-060E
Orbit
SSO
Last TLE update
5 hours ago
Origin
Manufacturer
Harbin
Mission
Operational Commercial Imaging
Bus & Motor
OHS-1, Unknown motor
Mass
69 kg wet, 69 kg dry
Launch date (UTC)
2019-09-19 (6 years ago)
Launch vehicle
CHANG ZHENG 11
Launch site
Jiuquan Satellite Launch Center, China (JSC)
Object type
Payload
Rocket body
Debris
Shape & HBR
Box, Unknown HBR
Radar Cross Section
0.280 m², Medium (>0.1 m² and < 1m²)

Expand to show TLE details & history

TLE from 5 hours ago
0 ZHUHAI-1 03D
1 44538U 19060E   25182.84082814  .00011663  00000-0  39461-3 0  9996
2 44538  97.5031 318.4212 0013384 122.7389 237.5144 15.30686176322188
Epoch: 2025-07-01T20:10Z
TLE epoch observation values (Epoch: 2025-07-01T20:10:47.551Z)
Latitude
0.00002°
Longitude
95.59257°
Altitude
481.801 km
Speed
7.622 km/s
True Right ascension
21h 13m 41s
True Declination
0° 00' 00"
Sunlit
Object was in full shadow at epoch
Visualization orbit readout
Latitude
-0.42299°
Longitude
-84.23158°
Altitude
472.086 km
Speed
7.633 km/s
Apparent Right ascension
06h 19m 56s
Apparent Declination
-33° 23' 08"
Sunlit
Object is in daylight
Visualization observer readout
Local Sidereal Time
13:21:11
Azimuth
250.793° W
Elevation
-31.481°
Doppler factor
1
Orbital elements
Apogee altitude
479.886 km
Perigee altitude
461.553 km
Semi-major axis
6,848.857 km
Eccentricity
0.00134
Inclination
97.5031°
RAAN
318.4212°
Arg. of periapsis
122.7389°
True anomaly
Unknown
Mean anomaly
237.5144°
Eccentric anomaly
Unknown
Mean motion
3.82927 °/min
Orbital period
94.01 mins
BSTAR
0.00039461
Loading maneuver chart data...
Loading SW <> Apogee altitude chart data...
Loading historical data...
Loading historical data...
Loading historical data...
Loading historical data...
Loading historical data...
Loading historical data...
Loading historical data...

ZHUHAI-1 03D Visibility forecast

Observer location: undefined°, undefined°

Span
Click to sort rows by Start time (UTC) header in descending order
Start Az.
Max El. time (UTC)
Max El. Az.
Max El.
End time (UTC)
End Az.
6 mins2025-07-02 08:51:14.763Z153.359° SSE2025-07-02 08:54:14.763Z100.183° ESE38.754°2025-07-02 08:57:14.763Z359.631° N
5 mins2025-07-02 21:51:14.763Z18.279° NNE2025-07-02 21:53:14.763Z63.875° ENE43.425°2025-07-02 21:56:14.763Z186.653° SSW
|